Regional Weather Roundup
Issued by NWS Memphis, TN

Home | Current Version | Previous Version | Text Only | Print | Product List | Glossary On
Versions: 1 2 3 4 5 6 7 8 9 10 11 12 13 14 15 16 17 18 19 20 21 22 23 24 25 26 27 28 29 30 31 32 33 34 35 36 37 38 39 40 41 42 43 44 45 46 47 48 49 50
000
ASUS44 KMEG 241210
RWRMEG
MEMPHIS CWA HOURLY WEATHER ROUNDUP
NATIONAL WEATHER SERVICE MEMPHIS TN
700 AM CDT THU APR 24 2014

...WEST TENNESSEE...

CITY           SKY/WX    TMP DP  RH WIND       PRES   REMARKS
MEMPHIS INTL   MOCLDY    58  38  47 SE7       29.92R
6HR MIN TEMP:  54; 6HR MAX TEMP:  62;

NWS MEMPHIS      N/A     49 N/A N/A MISG        N/A
JACKSON        CLEAR     46  37  71 CALM      29.95R
6HR MIN TEMP:  45; 6HR MAX TEMP:  56;

LEXINGTON      CLEAR     39  37  93 CALM      29.95R
SILERTON         N/A     49  38  65 E1          N/A
SAVANNAH       CLEAR     39  39 100 CALM      29.96R
DYERSBURG      CLEAR     52  34  50 E6        29.94S
6HR MIN TEMP:  48; 6HR MAX TEMP:  57;

UNION CITY     CLEAR     45  39  81 CALM      29.93S
PARIS          MOCLDY    48  34  58 SE8       29.96R


...EASTERN ARKANSAS...

CITY           SKY/WX    TMP DP  RH WIND       PRES   REMARKS
JONESBORO      CLEAR     52  43  71 CALM      29.91R
6HR MIN TEMP:  49; 6HR MAX TEMP:  54;

WEST MEMPHIS   CLEAR     51  44  77 S6        29.91R
6HR MIN TEMP:  49; 6HR MAX TEMP:  59;

BATESVILLE     PTCLDY    52  45  76 CALM      29.89R
6HR MIN TEMP:  50; 6HR MAX TEMP:  61;

NEWPORT        CLEAR     54  44  68 S3        29.91R
6HR MIN TEMP:  52; 6HR MAX TEMP:  58;

WALNUT RIDGE   MOCLDY    54  36  50 CALM      29.90R
6HR MIN TEMP:  52; 6HR MAX TEMP:  55;

BLYTHEVILLE    CLEAR     56  39  53 SE8       29.92S
6HR MIN TEMP:  53; 6HR MAX TEMP:  58;

SEARCY         PTCLDY    51  49  93 CALM      29.90R
6HR MIN TEMP:  48; 6HR MAX TEMP:  57;

STUTTGART      CLOUDY    61  46  59 S8        29.91R
6HR MIN TEMP:  57; 6HR MAX TEMP:  63;

PINE BLUFF     MOCLDY    55  48  77 CALM      29.90R
6HR MIN TEMP:  55; 6HR MAX TEMP:  58;

MONTICELLO     CLOUDY    55  49  80 CALM      29.90R
6HR MIN TEMP:  54; 6HR MAX TEMP:  62;



...NORTH MISSISSIPPI...

CITY           SKY/WX    TMP DP  RH WIND       PRES   REMARKS
TUPELO         CLEAR     50  44  80 CALM      29.96R
6HR MIN TEMP:  45; 6HR MAX TEMP:  53;

OXFORD         CLEAR     54  39  58 SE3       29.95S
TUNICA         PTCLDY    52  45  76 CALM      29.93R
CLARKSDALE       N/A     55  48  76 CALM      29.92S
CORINTH        CLEAR     43  41  93 CALM      29.95S
GRENADA        PTCLDY    48  46  93 CALM      29.94R
GREENWOOD      PTCLDY    59  43  55 E7        29.93R
6HR MIN TEMP:  53; 6HR MAX TEMP:  60;

COLUMBUS       PTCLDY    47  47  97 SE1       29.96R
6HR MIN TEMP:  46; 6HR MAX TEMP:  50;

STARKVILLE     FAIR      48  46  93 CALM      29.96R
GOLDEN TRIANGL CLEAR     52  43  71 CALM      29.98R


...SOUTHEAST MISSOURI...

CITY           SKY/WX    TMP DP  RH WIND       PRES   REMARKS
DONIPHAN         N/A     51  40  66 E3          N/A
WEST PLAINS    MOCLDY    55  37  50 SE9       29.86S
6HR MIN TEMP:  54; 6HR MAX TEMP:  58;

POPLAR BLUFF   MOCLDY    49  41  74 CALM      29.90R
6HR MIN TEMP:  47; 6HR MAX TEMP:  55;

CAPE GIRARDEAU MOCLDY    53  38  56 SE12      29.92S
6HR MIN TEMP:  51; 6HR MAX TEMP:  54;



...NORTHWEST ALABAMA...

CITY           SKY/WX    TMP DP  RH WIND       PRES   REMARKS
MUSCLE SHOALS  CLEAR     44  41  89 CALM      29.99R
6HR MIN TEMP:  41; 6HR MAX TEMP:  49;



...MIDDLE TENNESSEE...

CITY           SKY/WX    TMP DP  RH WIND       PRES   REMARKS
NASHVILLE      PTSUNNY   45  40  82 CALM      29.99R
6HR MIN TEMP:  41; 6HR MAX TEMP:  52;

CLARKSVILLE    PTSUNNY   45  37  73 CALM      29.97R
6HR MIN TEMP:  44; 6HR MAX TEMP:  52;

DICKSON        MOCLDY    45  36  70 CALM      29.97R
COLUMBIA       SUNNY     43  43 100 CALM      29.97R
LEWISBURG      MOSUNNY   39  36  89 CALM      29.98R


...WESTERN KENTUCKY...

CITY           SKY/WX    TMP DP  RH WIND       PRES   REMARKS
PADUCAH        PTCLDY    50  38  63 E6        29.94R
6HR MIN TEMP:  50; 6HR MAX TEMP:  54;

FORT CAMPBELL  PTSUNNY   47  37  67 E3        29.98R
6HR MIN TEMP:  47; 6HR MAX TEMP:  52;



...CENTRAL ARKANSAS...

CITY           SKY/WX    TMP DP  RH WIND       PRES   REMARKS
LITTLE ROCK    MOCLDY    56  50  80 CALM      29.90R
6HR MIN TEMP:  54; 6HR MAX TEMP:  62;



SKY/WX REPORTED AS FAIR MEANS FEW OR NO CLOUDS BELOW
12 THOUSAND FEET.




USA.gov is the U.S. government's official web portal to all federal, state and local government web resources and services.